When you browse on this site, cookies collect data to enhance your experience and personalize the content and advertising you see.
Visit our Privacy Policy to learn more. By continuing to use the site, you agree to this use of cookies and data.
  • în România
  • Lista ţărilor
  • Pe 7 zile
  • Temperatura apei
  • Hartă satelitară
  • Meteo pe hartă
  • Widget-uri
  • user-avatar
    Intrare

    Meteo pe oră la Nizhnebalkovskiy

    Astăzi, 25 Aprilie, Joi

    Timp Temperatura Precipitaţii Vânt Presiune Umiditate
    00:00 +8°C° 0.3 mm 4 m/s 736 mmHg 70%
    01:00 +8°C° 0.3 mm 4 m/s 736 mmHg 70%
    02:00 +8°C° 0.3 mm 4 m/s 736 mmHg 70%
    03:00 +8°C° 0 mm 3 m/s 736 mmHg 67%
    04:00 +8°C° 0 mm 3 m/s 736 mmHg 68%
    05:00 +8°C° 0 mm 3 m/s 736 mmHg 70%
    06:00 +8°C° 0 mm 3 m/s 736 mmHg 71%
    07:00 +10°C° 0 mm 3 m/s 736 mmHg 65%
    08:00 +13°C° 0 mm 3 m/s 736 mmHg 58%
    09:00 +16°C° 0 mm 3 m/s 736 mmHg 52%
    10:00 +17°C° 0 mm 3 m/s 736 mmHg 49%
    11:00 +18°C° 0 mm 3 m/s 736 mmHg 45%
    12:00 +19°C° 0 mm 2 m/s 736 mmHg 42%
    13:00 +19°C° 0 mm 2 m/s 736 mmHg 42%
    14:00 +19°C° 0 mm 2 m/s 736 mmHg 42%
    15:00 +19°C° 0 mm 2 m/s 735 mmHg 43%
    16:00 +19°C° 0 mm 2 m/s 735 mmHg 47%
    17:00 +18°C° 0 mm 2 m/s 735 mmHg 52%
    18:00 +18°C° 0 mm 2 m/s 735 mmHg 56%
    19:00 +16°C° 0 mm 1 m/s 735 mmHg 59%
    20:00 +14°C° 0 mm 1 m/s 735 mmHg 63%
    21:00 +13°C° 0 mm 1 m/s 735 mmHg 66%
    22:00 +12°C° 0 mm 1 m/s 735 mmHg 67%
    23:00 +12°C° 0 mm 1 m/s 735 mmHg 69%

    Mâine, 26 Aprilie, Vineri

    Timp Temperatura Precipitaţii Vânt Presiune Umiditate
    00:00 +11°C° 0 mm 1 m/s 735 mmHg 70%
    01:00 +11°C° 0 mm 1 m/s 735 mmHg 70%
    02:00 +11°C° 0 mm 1 m/s 735 mmHg 70%
    03:00 +10°C° 0 mm 1 m/s 734 mmHg 70%
    04:00 +10°C° 0 mm 1 m/s 734 mmHg 70%
    05:00 +10°C° 0 mm 1 m/s 734 mmHg 70%
    06:00 +10°C° 0 mm 1 m/s 734 mmHg 70%
    07:00 +13°C° 0 mm 1 m/s 734 mmHg 64%
    08:00 +15°C° 0 mm 1 m/s 734 mmHg 59%
    09:00 +18°C° 0 mm 1 m/s 734 mmHg 53%
    10:00 +18°C° 0 mm 2 m/s 733 mmHg 50%
    11:00 +19°C° 0 mm 3 m/s 733 mmHg 47%
    12:00 +20°C° 0 mm 4 m/s 733 mmHg 44%
    13:00 +21°C° 0 mm 4 m/s 733 mmHg 44%
    14:00 +21°C° 0 mm 4 m/s 732 mmHg 43%
    15:00 +21°C° 0 mm 4 m/s 732 mmHg 43%
    16:00 +20°C° 0 mm 4 m/s 732 mmHg 48%
    17:00 +20°C° 0 mm 3 m/s 732 mmHg 52%
    18:00 +19°C° 0 mm 3 m/s 731 mmHg 57%
    19:00 +17°C° 0 mm 3 m/s 732 mmHg 61%
    20:00 +16°C° 0 mm 3 m/s 732 mmHg 65%
    21:00 +14°C° 0 mm 2 m/s 732 mmHg 69%
    22:00 +13°C° 0 mm 2 m/s 732 mmHg 70%
    23:00 +13°C° 0 mm 2 m/s 732 mmHg 71%

    Poimâine, 27 Aprilie, Sâmbătă

    Timp Temperatura Precipitaţii Vânt Presiune Umiditate
    00:00 +12°C° 0 mm 2 m/s 732 mmHg 72%
    01:00 +12°C° 0 mm 2 m/s 731 mmHg 72%
    02:00 +10°C° 0 mm 2 m/s 731 mmHg 73%
    03:00 +10°C° 0 mm 2 m/s 731 mmHg 73%
    04:00 +11°C° 0 mm 1 m/s 731 mmHg 72%
    05:00 +11°C° 0 mm 1 m/s 731 mmHg 71%
    06:00 +12°C° 0 mm 1 m/s 731 mmHg 70%
    07:00 +14°C° 0 mm 2 m/s 731 mmHg 62%
    08:00 +16°C° 0 mm 3 m/s 731 mmHg 54%
    09:00 +19°C° 0 mm 4 m/s 731 mmHg 46%
    10:00 +19°C° 0 mm 4 m/s 731 mmHg 45%
    11:00 +20°C° 0 mm 4 m/s 730 mmHg 43%
    12:00 +21°C° 0 mm 4 m/s 730 mmHg 42%
    13:00 +21°C° 0 mm 4 m/s 730 mmHg 41%
    14:00 +22°C° 0 mm 4 m/s 729 mmHg 41%
    15:00 +22°C° 0 mm 4 m/s 729 mmHg 41%
    16:00 +21°C° 0 mm 3 m/s 729 mmHg 47%
    17:00 +20°C° 0 mm 3 m/s 729 mmHg 52%
    18:00 +19°C° 0 mm 2 m/s 729 mmHg 57%
    19:00 +19°C° 0.1 mm 1 m/s 729 mmHg 61%
    20:00 +18°C° 0.1 mm 1 m/s 729 mmHg 64%
    21:00 +15°C° 0.1 mm 0 m/s 729 mmHg 68%
    22:00 +14°C° 0 mm 0 m/s 729 mmHg 70%
    23:00 +15°C° 0 mm 1 m/s 729 mmHg 71%

    28 Aprilie, Duminică

    Timp Temperatura Precipitaţii Vânt Presiune Umiditate
    00:00 +14°C° 0 mm 1 m/s 729 mmHg 73%
    01:00 +13°C° 0 mm 1 m/s 728 mmHg 74%
    02:00 +13°C° 0 mm 1 m/s 728 mmHg 76%
    03:00 +12°C° 0 mm 1 m/s 728 mmHg 77%
    04:00 +12°C° 0 mm 1 m/s 728 mmHg 77%
    05:00 +12°C° 0 mm 1 m/s 728 mmHg 77%
    06:00 +12°C° 0 mm 2 m/s 728 mmHg 77%
    07:00 +14°C° 0 mm 2 m/s 728 mmHg 70%
    08:00 +16°C° 0 mm 2 m/s 728 mmHg 62%
    09:00 +19°C° 0 mm 2 m/s 728 mmHg 55%
    10:00 +20°C° 0 mm 2 m/s 728 mmHg 51%
    11:00 +21°C° 0 mm 2 m/s 727 mmHg 47%
    12:00 +23°C° 0 mm 2 m/s 727 mmHg 43%
    13:00 +23°C° 0 mm 2 m/s 727 mmHg 42%
    14:00 +24°C° 0 mm 2 m/s 727 mmHg 40%
    15:00 +24°C° 0 mm 2 m/s 726 mmHg 38%
    16:00 +23°C° 0 mm 2 m/s 726 mmHg 43%
    17:00 +23°C° 0 mm 1 m/s 726 mmHg 47%
    18:00 +22°C° 0 mm 1 m/s 726 mmHg 52%
    19:00 +20°C° 0 mm 1 m/s 726 mmHg 55%
    20:00 +18°C° 0 mm 1 m/s 727 mmHg 59%
    21:00 +15°C° 0 mm 0 m/s 727 mmHg 62%
    22:00 +15°C° 0 mm 1 m/s 727 mmHg 63%
    23:00 +15°C° 0 mm 1 m/s 727 mmHg 65%

    29 Aprilie, Luni

    Timp Temperatura Precipitaţii Vânt Presiune Umiditate
    00:00 +14°C° 0 mm 1 m/s 727 mmHg 66%
    01:00 +14°C° 0 mm 1 m/s 726 mmHg 67%
    02:00 +13°C° 0 mm 1 m/s 726 mmHg 68%
    03:00 +13°C° 0 mm 1 m/s 726 mmHg 69%
    04:00 +13°C° 0 mm 1 m/s 726 mmHg 68%
    05:00 +13°C° 0 mm 1 m/s 726 mmHg 67%
    06:00 +13°C° 0 mm 1 m/s 726 mmHg 67%
    07:00 +16°C° 0 mm 1 m/s 726 mmHg 60%
    08:00 +19°C° 0 mm 1 m/s 726 mmHg 53%
    09:00 +21°C° 0 mm 1 m/s 726 mmHg 47%
    10:00 +22°C° 0 mm 1 m/s 726 mmHg 43%
    11:00 +24°C° 0 mm 1 m/s 726 mmHg 40%
    12:00 +25°C° 0 mm 2 m/s 726 mmHg 37%
    13:00 +25°C° 0 mm 2 m/s 726 mmHg 37%
    14:00 +25°C° 0 mm 2 m/s 726 mmHg 37%
    15:00 +25°C° 0 mm 2 m/s 726 mmHg 37%
    16:00 +24°C° 0.1 mm 2 m/s 725 mmHg 43%
    17:00 +23°C° 0.1 mm 2 m/s 725 mmHg 49%
    18:00 +21°C° 0.1 mm 2 m/s 725 mmHg 56%
    19:00 +20°C° 0 mm 2 m/s 726 mmHg 60%
    20:00 +19°C° 0 mm 1 m/s 726 mmHg 63%
    21:00 +16°C° 0 mm 0 m/s 726 mmHg 67%
    22:00 +15°C° 0.2 mm 0 m/s 726 mmHg 69%
    23:00 +15°C° 0.2 mm 0 m/s 726 mmHg 72%

    30 Aprilie, Marţi

    Timp Temperatura Precipitaţii Vânt Presiune Umiditate
    00:00 +14°C° 0.2 mm 0 m/s 725 mmHg 74%
    01:00 +14°C° 0.5 mm 0 m/s 725 mmHg 76%
    02:00 +13°C° 0.5 mm 0 m/s 725 mmHg 79%
    03:00 +13°C° 0.5 mm 0 m/s 725 mmHg 82%
    04:00 +13°C° 0.1 mm 0 m/s 726 mmHg 81%
    05:00 +13°C° 0.1 mm 0 m/s 726 mmHg 80%
    06:00 +13°C° 0.1 mm 0 m/s 726 mmHg 79%
    07:00 +16°C° 0 mm 1 m/s 726 mmHg 73%
    08:00 +19°C° 0 mm 1 m/s 726 mmHg 66%
    09:00 +20°C° 0 mm 2 m/s 726 mmHg 60%
    10:00 +21°C° 0.2 mm 2 m/s 726 mmHg 57%
    11:00 +23°C° 0.2 mm 2 m/s 726 mmHg 54%
    12:00 +24°C° 0.2 mm 2 m/s 725 mmHg 51%
    13:00 +24°C° 0.3 mm 2 m/s 725 mmHg 51%
    14:00 +24°C° 0.3 mm 3 m/s 725 mmHg 52%
    15:00 +24°C° 0.3 mm 3 m/s 725 mmHg 52%
    16:00 +22°C° 1.2 mm 3 m/s 725 mmHg 59%
    17:00 +21°C° 1.2 mm 2 m/s 725 mmHg 65%
    18:00 +20°C° 1.2 mm 2 m/s 725 mmHg 72%
    19:00 +19°C° 0.1 mm 2 m/s 725 mmHg 77%
    20:00 +17°C° 0.1 mm 2 m/s 725 mmHg 81%
    21:00 +16°C° 0.1 mm 2 m/s 725 mmHg 86%
    22:00 +16°C° 0 mm 2 m/s 725 mmHg 87%
    23:00 +15°C° 0 mm 2 m/s 724 mmHg 88%
    Arată mai mult